| time (UTC) | temp C | wind direction | speed KPH | gust KPH | rain 1hr cm | rain 24hr cm | rain mn cm | humidity % | barometer mb |
| 20260507070022 | 8 | 253 | 0.0 | 3.2 | 0.00 | 0.38 | 0.00 | 90 | 1007.3 |
| 20260507064520 | 8 | 206 | 0.0 | 4.8 | 0.00 | 0.38 | 0.00 | 90 | 1007.1 |
| 20260507063039 | 8 | 61 | 0.0 | 6.4 | 0.00 | 0.38 | 0.00 | 91 | 1007.3 |
| 20260507061533 | 8 | 157 | 0.0 | 3.2 | 0.00 | 0.38 | 0.00 | 92 | 1006.9 |
| 20260507060038 | 9 | 213 | 0.0 | 3.2 | 0.00 | 0.38 | 0.00 | 93 | 1007.2 |
| 20260507054526 | 9 | 213 | 0.0 | 1.6 | 0.00 | 0.38 | 0.00 | 93 | 1007.8 |
| 20260507053026 | 9 | 190 | 0.0 | 0.0 | 0.00 | 0.38 | 0.00 | 93 | 1007.4 |
| 20260507051525 | 9 | 190 | 0.0 | 3.2 | 0.00 | 0.38 | 0.00 | 93 | 1007.7 |
| 20260507050032 | 9 | 171 | 0.0 | 1.6 | 0.00 | 0.38 | 0.00 | 93 | 1007.6 |
| 20260507044530 | 9 | 171 | 0.0 | 1.6 | 0.00 | 0.38 | 0.00 | 92 | 1007.3 |
| 20260507043020 | 10 | 171 | 0.0 | 6.4 | 0.00 | 0.38 | 0.00 | 93 | 1007.4 |
| 20260507041526 | 10 | 227 | 0.0 | 6.4 | 0.00 | 0.38 | 0.00 | 93 | 1007.5 |
| 20260507040025 | 10 | 161 | 0.0 | 3.2 | 0.00 | 0.38 | 0.00 | 93 | 1007.3 |
| 20260507034534 | 11 | 105 | 1.6 | 6.4 | 0.05 | 0.38 | 0.38 | 94 | 1007.0 |
| 20260507033030 | 11 | 275 | 0.0 | 3.2 | 0.05 | 0.38 | 0.38 | 94 | 1006.9 |
| 20260507031529 | 11 | 269 | 0.0 | 6.4 | 0.05 | 0.38 | 0.38 | 94 | 1006.8 |
| 20260507030022 | 12 | 137 | 0.0 | 4.8 | 0.05 | 0.38 | 0.38 | 94 | 1006.4 |
| 20260507024525 | 12 | 215 | 0.0 | 4.8 | 0.00 | 0.33 | 0.33 | 95 | 1006.8 |
| 20260507023026 | 13 | 231 | 0.0 | 6.4 | 0.00 | 0.33 | 0.33 | 95 | 1006.6 |
| 20260507021526 | 13 | 172 | 0.0 | 4.8 | 0.00 | 0.33 | 0.33 | 96 | 1006.1 |
| 20260507020028 | 14 | 316 | 0.0 | 0.0 | 0.00 | 0.33 | 0.33 | 97 | 1006.1 |
| 20260507014525 | 14 | 316 | 0.0 | 0.0 | 0.00 | 0.33 | 0.33 | 97 | 1005.8 |
| 20260507013043 | 14 | 316 | 0.0 | 0.0 | 0.00 | 0.33 | 0.33 | 97 | 1005.8 |
| 20260507011526 | 14 | 316 | 0.0 | 0.0 | 0.00 | 0.33 | 0.33 | 97 | 1005.8 |
| 20260507010034 | 14 | 316 | 0.0 | 0.0 | 0.00 | 0.33 | 0.33 | 97 | 1005.7 |
| 20260507004526 | 14 | 316 | 0.0 | 0.0 | 0.00 | 0.33 | 0.33 | 96 | 1005.7 |
| 20260507003025 | 14 | 316 | 0.0 | 0.0 | 0.00 | 0.33 | 0.33 | 96 | 1005.4 |
| 20260507001530 | 14 | 315 | 0.0 | 0.0 | 0.00 | 0.33 | 0.33 | 96 | 1005.4 |
| 20260507000028 | 14 | 336 | 0.0 | 1.6 | 0.00 | 0.33 | 0.33 | 96 | 1005.3 |
| 20260506234527 | 14 | 336 | 0.0 | 3.2 | 0.00 | 0.33 | 0.33 | 96 | 1005.1 |
| 20260506233036 | 14 | 117 | 0.0 | 1.6 | 0.00 | 0.33 | 0.33 | 96 | 1005.1 |
| 20260506231528 | 14 | 117 | 0.0 | 4.8 | 0.00 | 0.33 | 0.33 | 96 | 1005.1 |
| 20260506230010 | 14 | 280 | 0.0 | 3.2 | 0.00 | 0.33 | 0.33 | 96 | 1005.2 |
| 20260506224523 | 14 | 280 | 0.0 | 3.2 | 0.00 | 0.33 | 0.33 | 96 | 1005.4 |
| 20260506223022 | 14 | 280 | 0.0 | 1.6 | 0.03 | 0.33 | 0.33 | 96 | 1005.3 |
| 20260506221526 | 15 | 280 | 0.0 | 3.2 | 0.05 | 0.33 | 0.33 | 95 | 1005.5 |
| 20260506220028 | 15 | 290 | 0.0 | 3.2 | 0.05 | 0.33 | 0.33 | 95 | 1005.6 |
| 20260506214527 | 15 | 288 | 0.0 | 4.8 | 0.08 | 0.33 | 0.33 | 95 | 1005.5 |
| 20260506213027 | 15 | 302 | 0.0 | 4.8 | 0.05 | 0.30 | 0.30 | 95 | 1005.6 |
| 20260506211527 | 15 | 360 | 0.0 | 4.8 | 0.05 | 0.28 | 0.28 | 95 | 1005.7 |
| 20260506210033 | 15 | 263 | 1.6 | 6.4 | 0.05 | 0.28 | 0.28 | 95 | 1005.7 |
| 20260506204510 | 15 | 327 | 0.0 | 6.4 | 0.05 | 0.25 | 0.25 | 94 | 1005.8 |
| 20260506203023 | 15 | 290 | 0.0 | 3.2 | 0.08 | 0.25 | 0.25 | 94 | 1005.9 |
| 20260506201533 | 16 | 288 | 1.6 | 4.8 | 0.05 | 0.23 | 0.23 | 94 | 1006.0 |
| 20260506200039 | 15 | 298 | 1.6 | 6.4 | 0.05 | 0.23 | 0.23 | 93 | 1006.1 |
| 20260506194528 | 16 | 331 | 0.0 | 3.2 | 0.03 | 0.20 | 0.20 | 94 | 1006.3 |
| 20260506193028 | 16 | 45 | 0.0 | 3.2 | 0.03 | 0.18 | 0.18 | 93 | 1006.4 |
| 20260506191527 | 16 | 46 | 0.0 | 0.0 | 0.05 | 0.18 | 0.18 | 93 | 1006.0 |
| 20260506190023 | 16 | 46 | 0.0 | 1.6 | 0.10 | 0.18 | 0.18 | 93 | 1006.1 |
| 20260506184526 | 16 | 46 | 0.0 | 0.0 | 0.15 | 0.18 | 0.18 | 92 | 1006.5 |
| 20260506183033 | 16 | 46 | 0.0 | 1.6 | 0.15 | 0.15 | 0.15 | 91 | 1007.0 |
| 20260506181526 | 16 | 50 | 0.0 | 3.2 | 0.13 | 0.13 | 0.13 | 89 | 1007.2 |
| 20260506180030 | 17 | 343 | 0.0 | 1.6 | 0.08 | 0.08 | 0.08 | 84 | 1007.4 |
| 20260506174527 | 18 | 338 | 0.0 | 3.2 | 0.03 | 0.03 | 0.03 | 76 | 1007.5 |
| 20260506173023 | 20 | 259 | 0.0 | 4.8 | 0.00 | 0.00 | 0.00 | 71 | 1007.4 |
| 20260506171519 | 20 | 264 | 0.0 | 12.9 | 0.00 | 0.00 | 0.00 | 66 | 1007.1 |
| 20260506170027 | 20 | 227 | 3.2 | 8.0 | 0.00 | 0.00 | 0.00 | 67 | 1007.2 |
| 20260506164525 | 20 | 291 | 0.0 | 4.8 | 0.00 | 0.00 | 0.00 | 69 | 1007.2 |
| 20260506163025 | 20 | 325 | 0.0 | 8.0 | 0.00 | 0.00 | 0.00 | 69 | 1007.4 |
| 20260506161511 | 20 | 290 | 1.6 | 8.0 | 0.00 | 0.00 | 0.00 | 68 | 1007.5 |
| 20260506160021 | 20 | 258 | 1.6 | 4.8 | 0.00 | 0.00 | 0.00 | 70 | 1007.9 |
| 20260506154530 | 20 | 98 | 1.6 | 4.8 | 0.00 | 0.00 | 0.00 | 71 | 1008.3 |
| 20260506153023 | 20 | 283 | 0.0 | 6.4 | 0.00 | 0.00 | 0.00 | 71 | 1008.5 |
| 20260506151528 | 20 | 294 | 0.0 | 6.4 | 0.00 | 0.00 | 0.00 | 70 | 1008.8 |
| 20260506150024 | 20 | 294 | 1.6 | 4.8 | 0.00 | 0.00 | 0.00 | 70 | 1008.8 |
| 20260506144517 | 20 | 242 | 1.6 | 9.7 | 0.00 | 0.00 | 0.00 | 71 | 1008.7 |
| 20260506143034 | 20 | 185 | 1.6 | 9.7 | 0.00 | 0.00 | 0.00 | 71 | 1008.8 |
| 20260506141528 | 18 | 295 | 0.0 | 6.4 | 0.00 | 0.00 | 0.00 | 74 | 1008.6 |
| 20260506140020 | 18 | 76 | 0.0 | 4.8 | 0.00 | 0.00 | 0.00 | 77 | 1008.4 |
| 20260506134528 | 17 | 65 | 0.0 | 4.8 | 0.00 | 0.00 | 0.00 | 79 | 1008.7 |
| 20260506133025 | 17 | 20 | 0.0 | 4.8 | 0.00 | 0.00 | 0.00 | 79 | 1008.8 |
| 20260506131530 | 17 | 25 | 0.0 | 3.2 | 0.00 | 0.00 | 0.00 | 80 | 1009.0 |
| 20260506130026 | 16 | 352 | 0.0 | 3.2 | 0.00 | 0.00 | 0.00 | 81 | 1009.0 |
| 20260506124527 | 16 | 266 | 0.0 | 3.2 | 0.00 | 0.00 | 0.00 | 81 | 1009.0 |
| 20260506123039 | 16 | 305 | 0.0 | 0.0 | 0.00 | 0.00 | 0.00 | 82 | 1009.1 |
| 20260506121521 | 15 | 305 | 0.0 | 0.0 | 0.00 | 0.00 | 0.00 | 83 | 1009.0 |
| 20260506120036 | 15 | 305 | 0.0 | 0.0 | 0.00 | 0.00 | 0.00 | 84 | 1009.3 |
| 20260506114527 | 15 | 305 | 0.0 | 3.2 | 0.00 | 0.00 | 0.00 | 85 | 1009.3 |
| 20260506113026 | 14 | 304 | 0.0 | 3.2 | 0.00 | 0.00 | 0.00 | 86 | 1009.5 |
| 20260506111526 | 13 | 304 | 0.0 | 3.2 | 0.00 | 0.00 | 0.00 | 87 | 1009.6 |
| 20260506110028 | 13 | 305 | 0.0 | 1.6 | 0.00 | 0.00 | 0.00 | 88 | 1009.5 |
| 20260506104529 | 12 | 305 | 0.0 | 1.6 | 0.00 | 0.00 | 0.00 | 88 | 1009.5 |
| 20260506103030 | 12 | 305 | 0.0 | 3.2 | 0.00 | 0.00 | 0.00 | 88 | 1009.6 |
| 20260506101521 | 12 | 123 | 0.0 | 0.0 | 0.00 | 0.00 | 0.00 | 88 | 1009.4 |
| 20260506100029 | 12 | 123 | 0.0 | 0.0 | 0.00 | 0.00 | 0.00 | 87 | 1009.5 |
| 20260506094533 | 12 | 123 | 0.0 | 0.0 | 0.00 | 0.00 | 0.00 | 87 | 1009.5 |
| 20260506093041 | 12 | 123 | 0.0 | 0.0 | 0.00 | 0.00 | 0.00 | 86 | 1009.4 |
| 20260506091526 | 12 | 123 | 0.0 | 0.0 | 0.00 | 0.00 | 0.00 | 86 | 1009.5 |
| 20260506090028 | 12 | 123 | 0.0 | 0.0 | 0.00 | 0.00 | 0.00 | 85 | 1009.3 |
| 20260506084526 | 12 | 123 | 0.0 | 0.0 | 0.00 | 0.00 | 0.00 | 84 | 1009.5 |
| 20260506083026 | 12 | 123 | 0.0 | 0.0 | 0.00 | 0.00 | 0.00 | 83 | 1009.4 |
| 20260506081523 | 13 | 123 | 0.0 | 0.0 | 0.00 | 0.00 | 0.00 | 82 | 1009.3 |
| 20260506073026 | 14 | 123 | 0.0 | 0.0 | 0.00 | 0.00 | 0.00 | 79 | 1009.2 |
| 20260506071530 | 14 | 123 | 0.0 | 0.0 | 0.00 | 0.00 | 0.00 | 77 | 1009.0 |